Home > Weather > Zürich > Past weeks

Flag for Switzerland Weather for the Past 2 Weeks in Zürich, Zurich, Switzerland

Now
37 °F

Chilly.


Feels Like: 31 °F
Forecast: 33 / 44 °F
Wind: 7 mph from Southwest

Location: Zuerich-Fluntern

Current Time: Feb 13, 2016 at 9:10:53 AM

Latest Report: Feb 13, 2016 at 8:00 AM


Visibility: N/A

Pressure: 29.41 "Hg

Humidity: 90%

Dew point: 34 °F

Location of ZürichLocation

Historic Weather in Zürich — Graph

°F

Zürich Temperature Yesterday

Maximum temperature yesterday: 41 °F (at 1:00 PM)
Minimum temperature yesterday: 32 °F (at 8:00 AM)
Average temperature yesterday: 36 °F

High & Low Weather Summary for the Past Weeks

 TemperatureHumidityPressure
High56 °F (Feb 1, 1:00 PM)97% (Jan 30, 5:00 AM)30.51 "Hg (Jan 30, 5:00 AM)
Low32 °F (Feb 10, 8:00 AM)44% (Feb 11, 3:00 PM)29.32 "Hg (Feb 9, 6:00 PM)
Average41 °F78%30.03 "Hg
* Reported Jan 29 7:00 AM — Feb 13 7:00 AM, Zürich, Weather by CustomWeather, © 2016

Note: Actual official high and low records may vary slightly from our data, if they occured in-between our weather recording intervals... More about our weather records

Advertising

Zürich Weather History for the Previous 24 Hours

 ConditionsComfort  
Time TempWeatherWind HumidityBarometerVisibility
7:00 AM
Sat, Feb 13
38 °FChilly.10 mph89%29.41 "HgN/A
6:00 AM38 °FChilly.9 mph91%29.41 "HgN/A
5:00 AM38 °FChilly.10 mph90%29.41 "HgN/A
9:00 PM
Fri, Feb 12
35 °FChilly.3 mph94%29.38 "HgN/A
8:00 PM35 °FChilly.2 mph95%29.41 "HgN/A
7:00 PM34 °FChilly.2 mph95%29.41 "HgN/A
6:00 PM34 °FChilly.5 mph95%29.41 "HgN/A
5:00 PM36 °FChilly.2 mph82%29.38 "HgN/A
4:00 PM39 °FChilly.6 mph63%29.38 "HgN/A
3:00 PM40 °FQuite cool.3 mph59%29.38 "HgN/A
2:00 PM41 °FQuite cool.3 mph59%29.44 "HgN/A
1:00 PM41 °FPartly sunny.5 mph61%29.47 "HgN/A
12:00 PM38 °FChilly.3 mph77%29.56 "HgN/A
11:00 AM36 °FChilly.3 mph81%29.61 "HgN/A
10:00 AM35 °FChilly.3 mph88%29.64 "HgN/A
9:00 AM33 °FChilly.2 mph92%29.68 "HgN/A
Weather by CustomWeather, © 2016

See weather overviewHow to use our weather pages